EW8775 Weather Reports


Display with metric or nautical units.
time (UTC)temp
F
wind
direction
speed
MPH
gust
MPH
rain 1hr
in
rain 24hr
in
rain mn
in
humidity
%
barometer
mb
20260504040057 64 90 2.0 6.0 0.00 0.00 0.00 23 1008.4
20260504033016 65 90 2.0 6.0 0.00 0.00 0.00 23 1008.0
20260504030017 66 68 2.0 6.0 0.00 0.00 0.00 21 1007.5
20260504023017 67 68 1.0 7.0 0.00 0.00 0.00 21 1007.4
20260504020016 69 23 2.0 4.0 0.00 0.00 0.00 20 1007.5
20260504013016 71 0.0 3.0 0.00 0.00 0.00 21 1008.1
20260504010016 72 0.0 3.0 0.00 0.00 0.00 16 1008.3
20260504003021 73 0.0 4.0 0.00 0.00 0.00 15 1008.8
20260504000016 73 0.0 2.0 0.00 0.00 0.00 17 1009.5
20260503233016 73 203 1.0 6.0 0.00 0.00 0.00 14 1009.5
20260503230016 73 203 1.0 5.0 0.00 0.00 0.00 15 1009.9
20260503223016 74 23 2.0 8.0 0.00 0.00 0.00 14 1010.5
20260503220056 75 23 1.0 9.0 0.00 0.00 0.00 13 1011.4
20260503213056 74 180 1.0 7.0 0.00 0.00 0.00 14 1012.1
20260503210056 72 180 3.0 9.0 0.00 0.00 0.00 13 1012.8
20260503203016 73 180 3.0 9.0 0.00 0.00 0.00 17 1013.3
20260503200056 73 180 3.0 10.0 0.00 0.00 0.00 18 1013.7
20260503193056 71 180 2.0 9.0 0.00 0.00 0.00 19 1013.8
20260503190015 70 180 3.0 11.0 0.00 0.00 0.00 19 1014.7
20260503183015 69 180 3.0 9.0 0.00 0.00 0.00 21 1015.0
20260503180015 70 203 1.0 7.0 0.00 0.00 0.00 27 1015.4
20260503173018 68 0.0 4.0 0.00 0.00 0.00 29 1016.1
20260503140158 51 68 1.0 3.0 0.00 0.00 0.00 49 1015.9
20260503053017 58 90 1.0 3.0 0.00 0.00 0.00 25 1015.6
20260503050017 60 0 1.0 4.0 0.00 0.00 0.00 25 1015.7
20260503043017 61 135 2.0 4.0 0.00 0.00 0.00 21 1015.3